Hourly Weather Rumenka

Today, 23 April, Friday

Time Temperature Precipitation Wind Pressure Humidity
00:00 +10°C° 0.2 mm 3 mps 757 mmHg 83%
01:00 +8°C° 0.2 mm 4 mps 757 mmHg 86%
02:00 +9°C° 0.1 mm 3 mps 757 mmHg 85%
03:00 +9°C° 0.1 mm 3 mps 758 mmHg 83%
04:00 +8°C° 0.1 mm 2 mps 758 mmHg 82%
05:00 +9°C° 0 mm 3 mps 759 mmHg 75%
06:00 +9°C° 0 mm 3 mps 759 mmHg 69%
07:00 +10°C° 0 mm 4 mps 760 mmHg 62%
08:00 +11°C° 0 mm 4 mps 760 mmHg 55%
09:00 +12°C° 0 mm 4 mps 760 mmHg 48%
10:00 +13°C° 0 mm 5 mps 760 mmHg 41%
11:00 +14°C° 0 mm 5 mps 760 mmHg 40%
12:00 +14°C° 0 mm 5 mps 760 mmHg 39%
13:00 +15°C° 0 mm 5 mps 760 mmHg 38%
14:00 +15°C° 0 mm 5 mps 760 mmHg 39%
15:00 +15°C° 0 mm 5 mps 760 mmHg 40%
16:00 +14°C° 0 mm 5 mps 760 mmHg 40%
17:00 +13°C° 0 mm 4 mps 760 mmHg 46%
18:00 +11°C° 0 mm 3 mps 760 mmHg 52%
19:00 +10°C° 0 mm 2 mps 760 mmHg 58%
20:00 +9°C° 0 mm 2 mps 761 mmHg 59%
21:00 +9°C° 0 mm 2 mps 761 mmHg 61%
22:00 +8°C° 0 mm 2 mps 761 mmHg 62%
23:00 +8°C° 0 mm 2 mps 761 mmHg 63%

Tomorrow, 24 April, Saturday

Time Temperature Precipitation Wind Pressure Humidity
00:00 +7°C° 0 mm 2 mps 761 mmHg 65%
01:00 +7°C° 0 mm 2 mps 761 mmHg 66%
02:00 +6°C° 0 mm 2 mps 761 mmHg 68%
03:00 +6°C° 0 mm 2 mps 761 mmHg 70%
04:00 +7°C° 0 mm 1 mps 760 mmHg 72%
05:00 +8°C° 0 mm 1 mps 761 mmHg 68%
06:00 +9°C° 0 mm 1 mps 761 mmHg 65%
07:00 +10°C° 0 mm 1 mps 761 mmHg 61%
08:00 +12°C° 0 mm 2 mps 761 mmHg 55%
09:00 +13°C° 0 mm 2 mps 761 mmHg 49%
10:00 +14°C° 0 mm 3 mps 761 mmHg 43%
11:00 +16°C° 0 mm 3 mps 760 mmHg 41%
12:00 +16°C° 0 mm 3 mps 760 mmHg 39%
13:00 +17°C° 0 mm 3 mps 759 mmHg 37%
14:00 +17°C° 0 mm 3 mps 759 mmHg 38%
15:00 +17°C° 0 mm 3 mps 758 mmHg 38%
16:00 +17°C° 0 mm 2 mps 758 mmHg 38%
17:00 +15°C° 0 mm 2 mps 758 mmHg 44%
18:00 +14°C° 0 mm 2 mps 758 mmHg 50%
19:00 +12°C° 0 mm 1 mps 758 mmHg 56%
20:00 +11°C° 0 mm 1 mps 758 mmHg 59%
21:00 +11°C° 0 mm 1 mps 758 mmHg 61%
22:00 +10°C° 0 mm 1 mps 758 mmHg 63%
23:00 +10°C° 0 mm 1 mps 758 mmHg 65%

Day after tomorrow, 25 April, Sunday

Time Temperature Precipitation Wind Pressure Humidity
00:00 +9°C° 0 mm 1 mps 758 mmHg 66%
01:00 +9°C° 0 mm 1 mps 758 mmHg 68%
02:00 +7°C° 0 mm 0 mps 758 mmHg 69%
03:00 +7°C° 0 mm 0 mps 758 mmHg 71%
04:00 +7°C° 0 mm 0 mps 758 mmHg 72%
05:00 +8°C° 0 mm 0 mps 758 mmHg 69%
06:00 +9°C° 0 mm 0 mps 758 mmHg 65%
07:00 +11°C° 0 mm 0 mps 758 mmHg 61%
08:00 +12°C° 0 mm 0 mps 758 mmHg 56%
09:00 +14°C° 0 mm 0 mps 758 mmHg 50%
10:00 +16°C° 0 mm 0 mps 758 mmHg 44%
11:00 +19°C° 0 mm 1 mps 757 mmHg 42%
12:00 +19°C° 0 mm 1 mps 757 mmHg 40%
13:00 +20°C° 0 mm 1 mps 757 mmHg 38%
14:00 +19°C° 0 mm 2 mps 756 mmHg 39%
15:00 +19°C° 0 mm 2 mps 756 mmHg 40%
16:00 +19°C° 0 mm 2 mps 756 mmHg 42%
17:00 +17°C° 0 mm 2 mps 756 mmHg 49%
18:00 +16°C° 0 mm 2 mps 757 mmHg 56%
19:00 +13°C° 0 mm 3 mps 757 mmHg 63%
20:00 +12°C° 0 mm 3 mps 757 mmHg 65%
21:00 +11°C° 0 mm 3 mps 757 mmHg 68%
22:00 +10°C° 0 mm 3 mps 758 mmHg 70%
23:00 +10°C° 0 mm 3 mps 758 mmHg 68%

26 April, Monday

Time Temperature Precipitation Wind Pressure Humidity
00:00 +9°C° 0 mm 3 mps 758 mmHg 66%
01:00 +9°C° 0 mm 2 mps 758 mmHg 64%
02:00 +8°C° 0 mm 2 mps 757 mmHg 66%
03:00 +8°C° 0 mm 2 mps 757 mmHg 68%
04:00 +8°C° 0 mm 2 mps 757 mmHg 70%
05:00 +8°C° 0 mm 2 mps 757 mmHg 69%
06:00 +9°C° 0 mm 3 mps 757 mmHg 67%
07:00 +9°C° 0 mm 3 mps 757 mmHg 65%
08:00 +11°C° 0 mm 3 mps 757 mmHg 59%
09:00 +13°C° 0 mm 3 mps 756 mmHg 53%
10:00 +16°C° 0 mm 3 mps 756 mmHg 47%
11:00 +16°C° 0 mm 3 mps 755 mmHg 46%
12:00 +17°C° 0 mm 3 mps 755 mmHg 45%
13:00 +18°C° 0 mm 3 mps 754 mmHg 45%
14:00 +18°C° 0 mm 3 mps 754 mmHg 47%
15:00 +18°C° 0 mm 3 mps 753 mmHg 49%
16:00 +18°C° 0 mm 3 mps 753 mmHg 51%
17:00 +16°C° 0 mm 3 mps 753 mmHg 56%
18:00 +14°C° 0 mm 3 mps 753 mmHg 60%
19:00 +12°C° 0 mm 3 mps 753 mmHg 64%
20:00 +12°C° 0 mm 3 mps 753 mmHg 63%
21:00 +11°C° 0 mm 3 mps 753 mmHg 61%
22:00 +11°C° 0 mm 3 mps 752 mmHg 60%
23:00 +10°C° 0.2 mm 3 mps 752 mmHg 64%

27 April, Tuesday

Time Temperature Precipitation Wind Pressure Humidity
00:00 +10°C° 0.2 mm 2 mps 752 mmHg 68%
01:00 +9°C° 0.2 mm 2 mps 752 mmHg 72%
02:00 +9°C° 0.3 mm 2 mps 751 mmHg 77%
03:00 +8°C° 0.3 mm 2 mps 751 mmHg 82%
04:00 +8°C° 0.3 mm 2 mps 750 mmHg 87%
05:00 +9°C° 0.1 mm 2 mps 750 mmHg 86%
06:00 +10°C° 0.1 mm 3 mps 749 mmHg 84%
07:00 +11°C° 0.1 mm 3 mps 749 mmHg 82%
08:00 +13°C° 0 mm 3 mps 749 mmHg 76%
09:00 +15°C° 0 mm 4 mps 748 mmHg 69%
10:00 +17°C° 0 mm 5 mps 747 mmHg 63%
11:00 +19°C° 0 mm 4 mps 747 mmHg 57%
12:00 +20°C° 0 mm 4 mps 746 mmHg 51%
13:00 +22°C° 0 mm 4 mps 746 mmHg 45%
14:00 +21°C° 0 mm 3 mps 745 mmHg 49%
15:00 +21°C° 0 mm 3 mps 745 mmHg 54%
16:00 +20°C° 0 mm 3 mps 745 mmHg 58%
17:00 +19°C° 0.1 mm 3 mps 744 mmHg 63%
18:00 +18°C° 0.1 mm 3 mps 744 mmHg 68%
19:00 +17°C° 0.1 mm 3 mps 744 mmHg 72%
20:00 +16°C° 0 mm 3 mps 744 mmHg 72%
21:00 +14°C° 0 mm 3 mps 744 mmHg 72%
22:00 +13°C° 0 mm 3 mps 744 mmHg 71%
23:00 +13°C° 0 mm 2 mps 744 mmHg 72%

28 April, Wednesday

Time Temperature Precipitation Wind Pressure Humidity
00:00 +13°C° 0 mm 2 mps 744 mmHg 72%
01:00 +12°C° 0 mm 2 mps 744 mmHg 72%
02:00 +12°C° 0 mm 2 mps 744 mmHg 72%
03:00 +12°C° 0 mm 2 mps 744 mmHg 72%
04:00 +12°C° 0 mm 1 mps 744 mmHg 72%
05:00 +13°C° 0.1 mm 2 mps 744 mmHg 72%
06:00 +13°C° 0.1 mm 2 mps 745 mmHg 73%
07:00 +14°C° 0.1 mm 2 mps 745 mmHg 73%
08:00 +15°C° 0.1 mm 2 mps 745 mmHg 71%
09:00 +16°C° 0.1 mm 3 mps 745 mmHg 69%
10:00 +17°C° 0.1 mm 3 mps 745 mmHg 66%
11:00 +19°C° 0.1 mm 3 mps 745 mmHg 62%
12:00 +21°C° 0.1 mm 3 mps 745 mmHg 58%
13:00 +23°C° 0.1 mm 2 mps 744 mmHg 54%
14:00 +21°C° 1.5 mm 2 mps 744 mmHg 61%
15:00 +20°C° 1.5 mm 2 mps 744 mmHg 68%
16:00 +19°C° 1.5 mm 2 mps 744 mmHg 75%
17:00 +18°C° 0.2 mm 2 mps 744 mmHg 79%
18:00 +17°C° 0.2 mm 2 mps 744 mmHg 83%
19:00 +16°C° 0.2 mm 2 mps 744 mmHg 87%
20:00 +16°C° 0.1 mm 3 mps 744 mmHg 85%
21:00 +16°C° 0.1 mm 3 mps 744 mmHg 83%
22:00 +14°C° 0.1 mm 3 mps 744 mmHg 80%
23:00 +14°C° 0.1 mm 3 mps 744 mmHg 79%
Show more